Terminal Aerodrome Forecast
Issued by NWS Melbourne, FL

Home | Current Version | Previous Version | Text Only | Print | Product List | Glossary On
Versions: 1 2 3 4 5 6 7 8 9 10 11 12
300
FTUS42 KMLB 271532 CCA
TAFMLB
TAF COR
KMLB 271532Z 2716/2812 13010KT P6SM SCT030
     FM271700 14014G22KT P6SM FEW050=

USA.gov is the U.S. government's official web portal to all federal, state and local government web resources and services.